Location: Unspecified
(0.0000°N, 0.0000°E)
Time: 06:21:11
(UTC+00:00)

Vanguard 2 Rocket - Pass Details

Date: 08 October 2023
Orbit: 552 x 3312 km, 32.9° (Epoch: 06 December)

Event Time Altitude Azimuth Distance (km) Brightness Sun altitude
Rises 10:15:54 0° 316° (NW) 5,723 10.8 66.4°
Reaches altitude 10° 10:22:03 10° 336° (NNW) 5,259 10.8 67.8°
Maximum altitude 10:30:54 16° 9° (N) 5,325 11.0 70.0°
Drops below altitude 10° 10:41:11 10° 42° (NE) 6,210 11.4 72.4°
Sets 10:49:48 0° 61° (ENE) 7,276 11.6 74.4°
